Location: North Evanston
(42.0634°N, 87.6976°W)
Time: 22:24:33
(UTC+00:00)

Transit 2A - Pass Details

Date: 16 May 2026
Orbit: 595 x 949 km, 66.7° (Epoch: 5 June)

Event Time Altitude Azimuth Distance (km) Brightness Sun altitude
Rises 19:41:39 0° 167° (SSE) 3,596 9.6 56.7°
Reaches altitude 10° 19:44:53 10° 151° (SSE) 2,637 8.9 56.2°
Maximum altitude 19:49:13 20° 106° (ESE) 1,961 8.1 55.6°
Drops below altitude 10° 19:53:25 10° 61° (ENE) 2,540 8.5 54.9°
Sets 19:56:26 0° 46° (NE) 3,426 9.0 54.4°
